Decatur, AL

11:01 PM CDT on May 22, 2017 (GMT -0500)
Pryor Regional

Weather History for KDCU - February, 2013

Change the Weather History Date:

Saturday, February 23, 2013

  Actual Average Record
Temperature  
Mean Temperature 46 °F -  
Max Temperature 53 °F 56 °F 77 °F (2012)
Min Temperature 39 °F 35 °F 16 °F (1964)
Degree Days  
Heating Degree Days 19    
Moisture  
Dew Point 43 °F    
Average Humidity 87    
Maximum Humidity 100    
Minimum Humidity 69    
Precipitation  
Precipitation 0.01 in - - ()
Sea Level Pressure  
Sea Level Pressure 29.97 in    
Wind  
Wind Speed 3 mph (North)    
Max Wind Speed 8 mph    
Max Gust Speed -    
Visibility 7 miles    
Events      
Averages and records for this station are not official NWS values.
T = Trace of Precipitation, MM = Missing Value Source: NWS Daily Summary

Daily Weather History Graph

Daily Weather History Graph

Search for Another Location

Airport or City:

Trip Planner

Search our weather history database for the weather conditions in past years. The results will help you decide how hot, cold, wet, or windy it might be!

Date:

Astronomy

Feb. 23, 2013 Rise Set
Actual Time 6:24 AM CST 5:38 PM CST
Civil Twilight 5:58 AM CST 6:04 PM CST
Nautical Twilight 5:29 AM CST 6:33 PM CST
Astronomical Twilight 5:00 AM CST 7:02 PM CST
Moon 3:51 PM CST 4:42 AM CST
Length of Visible Light 12h 05m
Length of Day
11h 14m
Waxing Gibbous, 95% of the Moon is Illuminated
Feb 23
Waxing Gibbous
Feb 25
Full
Mar 4
Last Quarter
Mar 11
New
Mar 19
First Quarter

Hourly Weather History & Observations

Time (CST) Temp. Windchill Dew Point Humidity Pressure Visibility Wind Dir Wind Speed Gust Speed Precip Events Conditions
12:53 AM 46.9 °F - 45.0 °F 93% 30.02 in 4.0 mi Calm Calm - 0.01 in   Overcast
1:19 AM 46.4 °F 44.3 °F 44.6 °F 93% 29.99 in 4.0 mi NNE 4.6 mph - N/A   Overcast
1:53 AM 46.9 °F - 45.0 °F 93% 29.98 in 4.0 mi North 5.8 mph - N/A   Overcast
2:31 AM 46.4 °F - 44.6 °F 93% 29.99 in 4.0 mi Calm Calm - N/A   Overcast
2:53 AM 46.9 °F - 45.0 °F 93% 29.97 in 4.0 mi North 3.5 mph - N/A   Overcast
3:53 AM 46.9 °F - 46.0 °F 97% 29.96 in 4.0 mi North 4.6 mph - N/A   Overcast
4:53 AM 46.9 °F - 46.0 °F 97% 29.96 in 4.0 mi NNE 6.9 mph - N/A   Overcast
5:26 AM 46.4 °F 43.5 °F 44.6 °F 93% 29.97 in 2.5 mi North 5.8 mph - N/A   Overcast
5:53 AM 46.0 °F 42.5 °F 45.0 °F 96% 29.98 in 2.0 mi North 6.9 mph - N/A   Overcast
6:23 AM 44.6 °F 40.7 °F 44.6 °F 100% 29.97 in 4.0 mi North 6.9 mph - N/A   Overcast
6:42 AM 44.6 °F 40.2 °F 42.8 °F 93% 29.98 in 4.0 mi North 8.1 mph - N/A   Overcast
6:53 AM 45.0 °F 40.6 °F 43.0 °F 93% 29.98 in 5.0 mi North 8.1 mph - N/A   Overcast
7:53 AM 45.0 °F 41.8 °F 43.0 °F 93% 29.99 in 9.0 mi NNE 5.8 mph - N/A   Overcast
8:07 AM 46.4 °F 45.2 °F 42.8 °F 87% 29.98 in 10.0 mi NNE 3.5 mph - N/A   Overcast
8:53 AM 46.0 °F 43.9 °F 42.1 °F 86% 29.99 in 9.0 mi NNW 4.6 mph - N/A   Overcast
9:18 AM 46.4 °F 43.5 °F 42.8 °F 87% 29.97 in 9.0 mi NNE 5.8 mph - N/A   Overcast
9:53 AM 46.0 °F 44.8 °F 43.0 °F 89% 29.97 in 10.0 mi North 3.5 mph - N/A   Overcast
10:53 AM 46.9 °F - 43.0 °F 86% 30.00 in 10.0 mi Calm Calm - N/A   Overcast
11:24 AM 46.4 °F 45.2 °F 42.8 °F 87% 29.98 in 10.0 mi NNW 3.5 mph - N/A   Overcast
11:53 AM 48.0 °F - 43.0 °F 83% 29.97 in 10.0 mi North 4.6 mph - N/A   Overcast
12:53 PM 48.9 °F - 44.1 °F 83% 29.96 in 10.0 mi Calm Calm - N/A   Scattered Clouds
1:53 PM 51.1 °F - 43.0 °F 74% 29.94 in 10.0 mi Calm Calm - N/A   Clear
2:53 PM 51.1 °F - 44.1 °F 77% 29.93 in 9.0 mi Calm Calm - N/A   Clear
3:53 PM 53.1 °F - 43.0 °F 69% 29.91 in 10.0 mi Calm Calm - N/A   Clear
4:53 PM 52.0 °F - 45.0 °F 77% 29.90 in 10.0 mi Calm Calm - N/A   Clear
5:53 PM 48.0 °F - 44.1 °F 86% 29.92 in 9.0 mi SSW 3.5 mph - N/A   Clear
6:53 PM 45.0 °F - 42.1 °F 90% 29.95 in 8.0 mi Calm Calm - N/A   Clear
7:53 PM 44.1 °F - 42.1 °F 93% 29.96 in 8.0 mi Calm Calm - N/A   Clear
9:53 PM 39.9 °F 36.7 °F 33.1 °F 77% 29.98 in 10.0 mi NW 4.6 mph - N/A   Clear
10:53 PM 41.0 °F 38.0 °F 32.0 °F 70% 29.98 in 10.0 mi NW 4.6 mph - N/A   Clear
11:53 PM 39.9 °F - 32.0 °F 73% 30.00 in 10.0 mi Calm Calm - N/A   Clear